Bryce Canyon, UT

1:44 PM MST on December 05, 2019 (GMT -0700)
Bryce Canyon

Weather History for KBCE - October, 2019

Change the Weather History Date:

Wednesday, October 16, 2019

  Actual Average Record
Temperature  
Mean Temperature 44 °F -  
Max Temperature 69 °F 56 °F 73 °F (1991)
Min Temperature 19 °F 25 °F 14 °F (1984)
Degree Days  
Heating Degree Days 22    
Moisture  
Dew Point 10 °F    
Average Humidity 29    
Maximum Humidity 54    
Minimum Humidity 11    
Precipitation  
Precipitation 0.00 in - - ()
Sea Level Pressure  
Sea Level Pressure 30.13 in    
Wind  
Wind Speed 9 mph (SSW)    
Max Wind Speed 17 mph    
Max Gust Speed 24 mph    
Visibility 10 miles    
Events      
Averages and records for this station are not official NWS values.
T = Trace of Precipitation, MM = Missing Value Source: NWS Daily Summary

Daily Weather History Graph

Daily Weather History Graph

Search for Another Location

Airport or City:

Astronomy

Oct. 16, 2019 Rise Set
Actual Time 7:37 AM MDT 6:50 PM MDT
Civil Twilight 7:11 AM MDT 7:16 PM MDT
Nautical Twilight 6:40 AM MDT 7:46 PM MDT
Astronomical Twilight 6:10 AM MDT 8:17 PM MDT
Moon 8:48 PM MDT (10/16) 10:09 AM MDT (10/16)
Length of Visible Light 12h 05m
Length of Day
11h 12m
Waning Gibbous, 92% of the Moon is Illuminated
Oct 16
Waning Gibbous
Oct 21
Last Quarter
Oct 27
New
Nov 4
First Quarter
Nov 12
Full

Hourly Weather History & Observations

Time (MDT) Temp. Windchill Dew Point Humidity Pressure Visibility Wind Dir Wind Speed Gust Speed Precip Events Conditions
12:53 AM 30.9 °F 23.5 °F 7.0 °F 37% 30.19 in 10.0 mi West 8.1 mph - N/A   Clear
1:53 AM 30.9 °F 22.2 °F 7.0 °F 37% 30.17 in 10.0 mi West 10.4 mph - N/A   Clear
2:53 AM 28.0 °F 18.6 °F 7.0 °F 41% 30.17 in 10.0 mi West 10.4 mph - N/A   Clear
3:53 AM 28.0 °F 19.3 °F 7.0 °F 41% 30.15 in 10.0 mi West 9.2 mph - N/A   Clear
4:53 AM 28.9 °F 21.1 °F 7.0 °F 40% 30.14 in 10.0 mi West 8.1 mph - N/A   Clear
5:53 AM 28.0 °F 20.8 °F 7.0 °F 41% 30.16 in 10.0 mi West 6.9 mph - N/A   Clear
6:53 AM 21.0 °F 13.4 °F 5.0 °F 50% 30.26 in 10.0 mi WSW 5.8 mph - N/A   Clear
7:53 AM 19.0 °F 12.3 °F 5.0 °F 54% 30.30 in 10.0 mi SW 4.6 mph - N/A   Clear
8:53 AM 36.0 °F 30.3 °F 9.0 °F 33% 30.30 in 10.0 mi West 6.9 mph - N/A   Clear
9:53 AM 51.1 °F - 10.0 °F 19% 30.23 in 10.0 mi Calm Calm - N/A   Clear
10:53 AM 60.1 °F - 9.0 °F 13% 30.19 in 10.0 mi SE 8.1 mph - N/A   Clear
11:53 AM 62.1 °F - 10.0 °F 13% 30.17 in 10.0 mi ESE 11.5 mph - N/A   Clear
12:53 PM 64.0 °F - 12.0 °F 13% 30.13 in 10.0 mi SE 13.8 mph - N/A   Clear
1:53 PM 66.9 °F - 12.9 °F 12% 30.08 in 10.0 mi SE 17.3 mph - N/A   Clear
2:53 PM 68.0 °F - 12.0 °F 11% 30.05 in 10.0 mi SE 16.1 mph - N/A   Clear
3:53 PM 66.9 °F - 12.0 °F 12% 30.03 in 10.0 mi SE 15.0 mph - N/A   Clear
4:53 PM 66.9 °F - 12.9 °F 12% 30.01 in 10.0 mi SE 12.7 mph 24.2 mph N/A   Clear
5:53 PM 64.0 °F - 15.1 °F 15% 30.01 in 10.0 mi SSE 10.4 mph - N/A   Clear
6:53 PM 55.0 °F - 15.1 °F 21% 30.08 in 10.0 mi SSE 10.4 mph - N/A   Clear
7:53 PM 50.0 °F - 15.1 °F 25% 30.12 in 10.0 mi SSE 8.1 mph - N/A   Clear
8:53 PM 39.0 °F 34.8 °F 12.0 °F 33% 30.08 in 7.0 mi WSW 5.8 mph - N/A   Clear
9:53 PM 32.0 °F 25.6 °F 10.0 °F 40% 30.04 in 10.0 mi WSW 6.9 mph - N/A   Clear
10:53 PM 32.0 °F 25.6 °F 10.9 °F 42% 30.00 in 10.0 mi West 6.9 mph - N/A   Clear
11:53 PM 34.0 °F 28.8 °F 12.0 °F 40% 29.97 in 10.0 mi WSW 5.8 mph - N/A   Clear